[[{"header":{"parameterUnit":"m.s-1","parameterCategory":1,"la1":30.2991,"la2":30.254,"lo1":-89.0895,"lo2":-89.0444,"dy":0.0017,"dx":0.0017,"nx":28,"ny":28,"refTime":"2025-02-11T03:00:00:Z","depth":0,"parameterNumber":2,"parameterNumberName":"U-component_of_WINDS"},"data":[0,0,0,0,0,0,0,0,0,0,0,0,0,0,0,0,0,0,0,0,0,0,0,0,0,0,0,0,0,0,0,0,0,0,0,0,0,0,0,0,0,0,0,0,0,0,0,0,0,0,0,0,0,0,0,0,0,0,-1.3507,-1.3508,0,-1.3518,-1.3518,-1.3519,-1.3518,-1.3518,-1.3517,-1.3517,-1.3527,-1.3527,-1.3528,0,0,0,0,0,0,0,0,0,0,0,0,0,-1.3484,-1.3485,-1.3507,-1.3508,-1.3508,-1.3518,-1.3518,-1.3519,-1.3518,-1.3518,-1.3517,-1.3517,-1.3527,-1.3527,-1.3528,0,0,0,0,0,0,0,0,0,0,0,0,0,-1.3495,-1.3485,-1.3507,-1.3509,-1.3509,-1.3518,-1.3518,-1.3519,-1.3518,-1.3518,-1.3517,-1.3517,-1.3527,-1.3527,-1.3528,-1.3536,0,0,-1.353,-1.353,0,0,0,0,0,0,0,0,-1.3494,-1.3495,-1.3508,-1.3509,-1.3509,-1.3516,-1.3514,-1.3525,-1.3518,-1.3514,-1.3517,-1.3517,-1.3524,-1.3524,-1.3527,-1.3537,-1.3537,-1.353,-1.353,-1.353,-1.3531,0,0,0,0,0,0,0,-1.3493,-1.3495,-1.3512,-1.3508,-1.3509,-1.3508,-1.3509,-1.3516,-1.352,-1.3515,-1.3515,-1.3516,-1.3524,-1.3526,-1.3527,-1.3537,-1.353,-1.353,-1.3531,-1.3531,-1.3554,-1.3554,0,0,0,0,0,0,-1.3492,-1.3494,-1.3511,-1.3512,-1.3501,-1.3509,-1.351,-1.3514,-1.352,-1.3521,-1.3516,-1.3516,-1.3525,-1.3526,-1.3528,-1.3537,-1.353,-1.3531,-1.3531,-1.3554,-1.3554,-1.3554,0,0,0,0,0,0,-1.3492,-1.3494,-1.3511,-1.3503,-1.3505,-1.3509,-1.3514,-1.3515,-1.3517,-1.3521,-1.3522,-1.3518,-1.3525,-1.3527,-1.3534,-1.3538,-1.3531,-1.3532,-1.3554,-1.3554,-1.3554,-1.3557,0,0,0,0,0,0,-1.3491,-1.3494,-1.3498,-1.3503,-1.3506,-1.3518,-1.3514,-1.3515,-1.3518,-1.3518,-1.3523,-1.3524,-1.3525,-1.3533,-1.3535,-1.3538,-1.3532,-1.3553,-1.3554,-1.3554,-1.3557,-1.3558,-1.3559,0,0,0,0,0,-1.349,-1.3498,-1.3498,-1.35,-1.351,-1.3518,-1.3519,-1.3521,-1.3519,-1.3522,-1.3525,-1.3524,-1.3537,-1.3534,-1.3536,-1.354,-1.3553,-1.3554,-1.3554,-1.3557,-1.3558,-1.3559,0,0,0,0,0,0,-1.3492,-1.3499,-1.3499,-1.3508,-1.3513,-1.3518,-1.3522,-1.3522,-1.3527,-1.3527,-1.3528,-1.3529,-1.3537,-1.3539,-1.3535,-1.3548,-1.3545,-1.3546,-1.3546,-1.3547,-1.3548,-1.3547,-1.3533,0,0,0,0,0,-1.3493,-1.35,-1.3505,-1.3513,-1.3515,-1.3518,-1.3522,-1.3523,-1.3527,-1.3529,-1.3532,-1.3536,-1.3541,-1.3544,-1.3549,-1.3557,-1.3558,-1.3561,-1.3562,-1.3562,-1.3563,-1.3567,-1.3568,-1.3556,-1.3556,-1.3556,0,0,-1.3496,-1.3501,-1.3504,-1.3513,-1.3517,-1.3522,-1.352,-1.3526,-1.353,-1.353,-1.3537,-1.3539,-1.3544,-1.3552,-1.3555,-1.3554,-1.3566,-1.3563,-1.3564,-1.3564,-1.3568,-1.3569,-1.357,-1.3557,-1.3557,-1.3557,0,0,-1.3505,-1.3509,-1.3516,-1.3519,-1.3525,-1.3527,-1.3529,-1.3534,-1.3536,-1.3543,-1.3543,-1.3547,-1.3556,-1.3559,-1.3562,-1.3571,-1.357,-1.3573,-1.3576,-1.358,-1.3581,-1.3582,-1.3585,-1.3586,-1.3573,-1.3573,-1.3573,0,-1.3507,-1.3516,-1.3519,-1.3525,-1.3529,-1.3529,-1.3535,-1.3539,-1.3545,-1.3547,-1.3546,-1.3557,-1.356,-1.3568,-1.357,-1.3573,-1.3574,-1.3572,-1.3581,-1.3582,-1.3583,-1.3585,-1.3586,-1.3573,-1.3573,-1.3573,-1.3573,0,-1.3519,-1.3526,-1.353,-1.3537,-1.3541,-1.3547,-1.355,-1.3554,-1.3554,-1.3556,-1.3564,-1.3567,-1.3573,-1.3575,-1.3575,-1.3583,-1.3582,-1.3581,-1.3578,-1.3584,-1.3586,-1.3587,-1.3574,-1.3574,-1.3574,-1.3574,0,0,-1.3529,-1.3537,-1.3538,-1.3541,-1.3547,-1.3552,-1.3558,-1.3564,-1.3566,-1.3571,-1.3576,-1.3583,-1.3582,-1.3585,-1.3586,-1.3589,-1.3595,-1.3587,-1.3587,-1.3588,-1.3603,-1.3604,-1.3605,-1.3595,-1.3595,-1.3595,-1.3603,0,-1.3537,-1.3548,-1.355,-1.356,-1.3565,-1.3565,-1.3571,-1.3575,-1.3577,-1.3581,-1.3583,-1.3588,-1.3587,-1.3588,-1.3592,-1.3594,-1.3598,-1.3593,-1.3599,-1.3599,-1.3597,-1.3606,-1.3607,-1.3614,-1.3604,-1.3604,-1.3604,0,-1.3548,-1.3553,-1.3563,-1.3568,-1.3571,-1.3575,-1.3581,-1.3585,-1.3589,-1.3591,-1.3594,-1.3594,-1.36,-1.3597,-1.3604,-1.3601,-1.3603,-1.3605,-1.3605,-1.3605,-1.3602,-1.3606,-1.3616,-1.3617,-1.3606,-1.3606,-1.3605,0,-1.3553,-1.3563,-1.357,-1.3572,-1.3578,-1.3582,-1.3584,-1.3588,-1.3591,-1.3596,-1.3598,-1.3603,-1.3605,-1.3609,-1.361,-1.3608,-1.3617,-1.3614,-1.3618,-1.3618,-1.3619,-1.3619,-1.3629,-1.3622,-1.3622,-1.3622,-1.3622,0,-1.3562,-1.3568,-1.3572,-1.3576,-1.3583,-1.3585,-1.3591,-1.3594,-1.3597,-1.3602,-1.3602,-1.3606,-1.3608,-1.3612,-1.3613,-1.3619,-1.362,-1.3621,-1.3621,-1.3621,-1.3621,-1.3622,-1.3621,-1.3622,-1.3622,-1.3622,-1.3622,0,-1.3568,-1.3571,-1.3579,-1.3584,-1.3586,-1.359,-1.3595,-1.3598,-1.3601,-1.3606,-1.3607,-1.3611,-1.3615,-1.3617,-1.3623,-1.3624,-1.363,-1.363,-1.3629,-1.3629,-1.3632,-1.3631,-1.3643,-1.3644,-1.3636,-1.3636,-1.3636,0,-1.3573,-1.3578,-1.3584,-1.3587,-1.359,-1.3595,-1.3598,-1.3601,-1.3604,-1.3609,-1.3612,-1.3617,-1.3621,-1.3629,-1.3631,-1.3636,-1.3635,-1.3639,-1.3636,-1.3635,-1.3635,-1.3634,-1.3634,-1.3639,-1.3639,-1.364,-1.364,0,-1.3582,-1.3583,-1.3588,-1.3594,-1.3598,-1.3602,-1.3606,-1.3608,-1.3611,-1.3615,-1.362,-1.3623,-1.3629,-1.3634,-1.3638,-1.3641,-1.364,-1.3641,-1.3642,-1.3641,-1.364,-1.364,-1.363,-1.364,-1.364,-1.364,-1.364,-1.364,-1.3587,-1.3591,-1.3596,-1.3601,-1.3605,-1.3609,-1.3613,-1.3615,-1.362,-1.3625,-1.3626,-1.3632,-1.3635,-1.3641,-1.3644,-1.3648,-1.3647,-1.3648,-1.3648,-1.3648,-1.3648,-1.364,-1.3648,-1.3648,-1.3648,-1.3648,-1.3648,0,-1.3596,-1.3599,-1.3604,-1.361,-1.3614,-1.3614,-1.3618,-1.3621,-1.3626,-1.363,-1.3634,-1.364,-1.3644,-1.3647,-1.3652,-1.3654,-1.3654,-1.3655,-1.3655,-1.3655,-1.3649,-1.3648,-1.3655,-1.3655,-1.3655,-1.3655,-1.3655,-1.3655,-1.36,-1.3607,-1.3609,-1.3617,-1.362,-1.3625,-1.3628,-1.3631,-1.3634,-1.364,-1.3644,-1.3646,-1.365,-1.3654,-1.3658,-1.3659,-1.366,-1.3661,-1.3662,-1.3656,-1.3656,-1.3655,-1.3653,-1.3662,-1.3662,-1.3667,-1.3667,-1.3667]},{"header":{"parameterUnit":"m.s-1","parameterCategory":1,"la1":30.2991,"la2":30.254,"lo1":-89.0895,"lo2":-89.0444,"dy":0.0017,"dx":0.0017,"nx":28,"ny":28,"refTime":"2025-02-11T03:00:00:Z","depth":0,"parameterNumber":3,"parameterNumberName":"V-component_of_WINDS"},"data":[0,0,0,0,0,0,0,0,0,0,0,0,0,0,0,0,0,0,0,0,0,0,0,0,0,0,0,0,0,0,0,0,0,0,0,0,0,0,0,0,0,0,0,0,0,0,0,0,0,0,0,0,0,0,0,0,0,0,5.7007,5.701,0,5.7248,5.725,5.7253,5.7318,5.7316,5.7315,5.7314,5.7563,5.7571,5.7579,0,0,0,0,0,0,0,0,0,0,0,0,0,5.661,5.6617,5.7007,5.701,5.7013,5.7247,5.725,5.7254,5.7318,5.7316,5.7315,5.7313,5.756,5.757,5.7579,0,0,0,0,0,0,0,0,0,0,0,0,0,5.681,5.6619,5.7006,5.7073,5.7082,5.7246,5.7251,5.7255,5.7319,5.7316,5.7314,5.7312,5.7557,5.7569,5.7581,5.7697,0,0,5.7617,5.7622,0,0,0,0,0,0,0,0,5.6798,5.6824,5.706,5.7069,5.7079,5.725,5.7202,5.7403,5.7319,5.7229,5.7314,5.7311,5.7461,5.7481,5.7531,5.7709,5.772,5.7618,5.7626,5.7631,5.7634,0,0,0,0,0,0,0,5.6784,5.6814,5.7102,5.7064,5.7075,5.7093,5.7119,5.724,5.7354,5.7236,5.7242,5.7269,5.7466,5.7519,5.7537,5.7723,5.7618,5.7629,5.7636,5.7641,5.8016,5.8019,0,0,0,0,0,0,5.6758,5.6802,5.7095,5.7109,5.693,5.7102,5.7131,5.7197,5.7353,5.7374,5.7271,5.7271,5.75,5.7523,5.7546,5.7698,5.7631,5.7642,5.7649,5.8013,5.8017,5.802,0,0,0,0,0,0,5.675,5.6784,5.7085,5.6958,5.6997,5.7111,5.7185,5.7203,5.7257,5.7379,5.74,5.7304,5.7499,5.7529,5.7661,5.7707,5.7647,5.7658,5.801,5.8014,5.8018,5.7998,0,0,0,0,0,0,5.6738,5.678,5.6824,5.6958,5.7004,5.7193,5.7188,5.721,5.7277,5.728,5.7415,5.7436,5.7499,5.7642,5.7672,5.7722,5.7667,5.8006,5.8012,5.8017,5.7995,5.8001,5.8006,0,0,0,0,0,5.6723,5.6808,5.6825,5.686,5.706,5.7196,5.7222,5.7293,5.728,5.7327,5.7406,5.7432,5.7696,5.7655,5.769,5.7744,5.8004,5.801,5.8017,5.7993,5.8,5.8006,0,0,0,0,0,0,5.6676,5.6826,5.6848,5.6977,5.7073,5.7206,5.7267,5.7297,5.7399,5.7398,5.7482,5.7512,5.7639,5.7704,5.7655,5.7868,5.7851,5.7864,5.7821,5.7829,5.7834,5.7817,5.7677,0,0,0,0,0,5.668,5.6776,5.6903,5.7005,5.7052,5.7151,5.7213,5.7259,5.7362,5.7403,5.7492,5.7592,5.7699,5.7767,5.7871,5.8004,5.8038,5.8059,5.8064,5.8068,5.808,5.8161,5.8174,5.8041,5.8041,5.804,0,0,5.669,5.6785,5.684,5.6998,5.7078,5.7178,5.7185,5.7289,5.7366,5.7419,5.755,5.7619,5.7736,5.7871,5.7934,5.7929,5.8124,5.8076,5.8078,5.8089,5.8169,5.8182,5.8193,5.8045,5.8044,5.8043,0,0,5.6762,5.684,5.6937,5.7018,5.7139,5.7205,5.7228,5.7358,5.7406,5.7538,5.7582,5.7675,5.7854,5.7939,5.8005,5.8113,5.8142,5.8144,5.8174,5.8252,5.8263,5.8273,5.8316,5.833,5.8155,5.8155,5.8155,0,5.676,5.6911,5.6983,5.7087,5.7158,5.7212,5.7313,5.7388,5.7537,5.7585,5.7577,5.7808,5.789,5.8048,5.8075,5.8125,5.8158,5.813,5.8255,5.8266,5.8276,5.8318,5.8334,5.8155,5.8155,5.8155,5.8155,0,5.6905,5.701,5.7074,5.7218,5.7295,5.7397,5.7488,5.7558,5.7598,5.7666,5.7803,5.7905,5.8033,5.8073,5.8113,5.8238,5.8232,5.8238,5.8223,5.8287,5.8329,5.8345,5.8154,5.8154,5.8154,5.8154,0,0,5.6952,5.7137,5.716,5.7229,5.7368,5.7452,5.7558,5.7683,5.7745,5.7846,5.794,5.8093,5.8102,5.8177,5.8227,5.8295,5.8381,5.8294,5.8298,5.8311,5.8531,5.8529,5.8546,5.84,5.8403,5.8406,5.8523,0,5.7044,5.7235,5.7306,5.7463,5.7564,5.7619,5.7712,5.781,5.7876,5.7974,5.8048,5.8157,5.8157,5.8204,5.8273,5.8355,5.8427,5.8347,5.8492,5.8497,5.8465,5.8567,5.8563,5.8669,5.8539,5.8542,5.8544,0,5.7176,5.7282,5.745,5.7582,5.7627,5.7709,5.7834,5.7924,5.8037,5.8082,5.8168,5.8214,5.8331,5.8307,5.8472,5.8417,5.848,5.853,5.8536,5.8555,5.8526,5.8593,5.8704,5.8721,5.8569,5.8567,5.8565,0,5.72,5.7383,5.751,5.7566,5.7721,5.7779,5.7847,5.7958,5.8031,5.814,5.8189,5.8309,5.8375,5.8469,5.8548,5.8522,5.8708,5.8689,5.8751,5.875,5.879,5.8787,5.8917,5.8824,5.8824,5.8823,5.8823,0,5.7298,5.74,5.7523,5.7601,5.7718,5.78,5.7914,5.7986,5.8085,5.818,5.8233,5.8322,5.8419,5.8522,5.8584,5.8714,5.8743,5.8785,5.8801,5.8782,5.8778,5.8828,5.8824,5.8828,5.8827,5.8826,5.8825,0,5.7345,5.743,5.7573,5.7709,5.7747,5.7828,5.7947,5.8026,5.8096,5.8216,5.8249,5.836,5.8483,5.8571,5.8729,5.8772,5.8913,5.8926,5.8875,5.8884,5.8944,5.8938,5.9113,5.9142,5.9025,5.9026,5.9027,0,5.7403,5.7483,5.763,5.7698,5.7766,5.7873,5.7949,5.8033,5.811,5.8248,5.8312,5.8439,5.8545,5.874,5.8836,5.8959,5.8979,5.9032,5.8998,5.8978,5.8986,5.8982,5.8992,5.9037,5.9038,5.9039,5.9039,0,5.7499,5.7539,5.7645,5.7768,5.7857,5.7958,5.8059,5.8112,5.8215,5.8299,5.8426,5.8509,5.8672,5.8799,5.8932,5.9005,5.9042,5.9049,5.9071,5.9055,5.9024,5.9047,5.8894,5.9045,5.9045,5.9044,5.9044,5.9044,5.7558,5.7634,5.775,5.7869,5.7954,5.8049,5.8132,5.8214,5.8321,5.8461,5.8504,5.8638,5.8754,5.8936,5.901,5.9118,5.9115,5.9145,5.9154,5.9161,5.9164,5.9004,5.9142,5.9142,5.9142,5.9141,5.9141,0,5.7661,5.774,5.7847,5.7989,5.8084,5.8108,5.8223,5.8301,5.8418,5.8523,5.8627,5.8776,5.8901,5.9007,5.9138,5.9203,5.9224,5.9235,5.9233,5.9251,5.9156,5.9126,5.9217,5.9217,5.9217,5.9217,5.9217,5.9217,5.7726,5.7859,5.7913,5.809,5.8168,5.8299,5.8364,5.8453,5.8538,5.8702,5.8806,5.8874,5.8982,5.9121,5.9238,5.9266,5.9314,5.9322,5.9355,5.9265,5.9256,5.9248,5.9221,5.933,5.933,5.9442,5.9443,5.9443]}]]